Lid_Strength_Index
12 12 11 12 12 12 13 13 15 13 14 12 11 12 11 10 9 8 7 7 7 7 8 7 7 8 8 8 8 8 8 9 8 8 8 9 9 9 8 8 9 8 8 8
14 12 13 13 12 12 13 13 13 14 14 11 12 11 11 10 9 9 8 8 8 7 7 7 7 7 8 9 9 8 9 9 9 9 9 9 9 9 9 9 8 7 8 8
16 14 14 17 13 12 12 12 11 14 11 11 12 11 11 11 10 9 9 10 9 9 8 7 7 8 9 9 8 9 9 10 10 9 10 9 8 8 8 8 8 8 8 8
18 17 20 13 11 11 11 12 12 12 12 11 11 11 12 11 10 11 11 11 11 11 10 10 10 10 9 9 10 11 11 10 9 9 9 9 8 8 8 8 8 9 10 10
18 18 15 13 12 12 12 13 11 12 11 10 9 10 11 11 11 12 12 12 12 12 11 11 11 11 10 11 11 11 10 9 8 8 8 8 8 8 8 9 10 11 10 9
18 19 20 13 11 10 11 15 10 10 10 10 10 14 12 11 11 12 12 12 12 12 11 11 11 10 11 11 10 10 9 9 8 8 8 8 9 9 10 11 11 10 10 10
21 20 16 11 11 10 15 14 10 9 9 10 11 11 11 11 12 12 12 12 11 11 12 12 11 10 10 10 10 8 8 8 8 9 10 11 11 12 12 12 11 11 11 11
19 20 18 11 11 13 11 11 9 9 9 10 11 11 12 12 12 12 12 12 12 12 12 11 11 10 11 11 10 10 10 10 11 12 12 12 13 13 12 12 12 11 12 11
13 14 11 11 11 10 9 10 9 8 9 10 11 12 12 12 12 13 13 13 12 12 12 12 12 12 12 12 12 12 12 13 13 13 13 13 13 13 12 12 12 12 11 11
13 11 10 9 10 9 8 8 8 8 9 10 11 11 12 13 13 13 13 13 12 13 13 13 12 12 12 12 13 13 13 14 14 14 14 13 13 12 12 13 12 11 10 10
13 11 10 9 10 10 9 9 10 10 10 10 11 12 12 13 13 13 13 13 12 13 13 13 13 13 13 13 13 14 14 14 14 14 14 14 13 12 11 11 11 11 10 10
12 10 10 9 10 9 10 10 10 11 11 11 11 12 12 13 13 13 13 13 14 14 14 14 15 15 14 14 15 15 14 15 15 16 16 14 13 13 11 11 10 9 9 10
9 8 10 10 11 10 11 11 11 11 11 12 12 12 13 14 14 13 14 14 14 14 15 16 16 16 16 15 15 15 16 16 16 16 15 14 14 14 15 13 11 11 10 9
10 10 12 11 12 12 12 12 11 12 12 12 13 13 14 15 14 14 14 14 14 14 15 16 16 16 16 16 16 17 17 17 17 16 16 15 16 14 15 15 15 15 12 10
11 11 10 12 12 13 13 12 13 14 14 14 14 15 14 15 15 16 15 14 15 17 17 17 17 17 17 17 17 17 17 17 16 16 16 15 15 16 16 15 14 14 14 13
13 13 12 13 14 13 13 14 14 15 14 14 14 14 15 15 16 16 15 15 17 18 18 20 18 18 17 17 18 18 17 16 17 16 17 17 17 17 16 16 15 15 15 15
14 15 14 14 14 14 14 14 14 14 13 13 15 15 15 16 16 16 17 18 18 18 18 18 19 18 18 18 18 18 17 17 18 18 18 18 18 18 17 16 18 17 17 16
12 12 12 13 14 14 14 14 14 14 14 15 15 16 17 17 17 18 18 19 19 18 18 18 18 18 19 19 18 18 19 19 19 19 19 20 20 18 18 19 19 19 19 17
11 12 12 13 13 13 14 14 14 15 16 16 16 17 17 17 17 18 19 20 20 19 19 18 18 19 20 19 19 19 20 22 22 21 21 22 22 21 20 21 20 21 20 19
12 12 12 13 13 14 15 15 15 15 16 17 18 18 18 18 19 20 19 20 19 18 17 19 19 20 20 19 20 20 22 26 22 24 25 23 27 27 25 24 22 22 22 20
13 13 14 14 15 14 15 15 16 16 17 17 17 18 18 19 19 20 20 20 19 18 18 19 20 20 19 20 20 25 28 29 28 26 27 30 31 28 29 29 25 23 22 21
14 15 15 15 15 16 16 16 16 17 18 19 19 19 19 19 20 20 20 18 18 21 19 19 19 23 21 23 21 27 23 25 27 28 30 31 32 31 30 30 27 24 23 23
15 15 15 16 16 16 17 17 18 18 19 19 19 19 18 18 19 20 20 18 19 21 19 20 22 26 27 28 29 31 30 31 31 30 32 35 35 35 32 29 27 26 25 24
14 14 15 15 16 17 18 18 17 18 18 18 19 19 18 20 21 18 19 22 23 24 25 26 26 25 27 30 31 32 32 33 34 34 32 33 37 36 33 33 29 27 26 26
15 15 15 16 16 17 17 17 17 17 17 17 17 17 17 18 21 20 22 21 21 23 25 26 26 27 31 32 33 32 32 33 34 35 36 37 36 35 34 33 31 29 27 26
15 16 16 16 16 16 16 16 17 17 18 19 19 20 21 20 20 20 22 23 23 24 24 29 30 31 32 31 32 32 29 28 33 33 35 36 37 33 34 32 31 29 28 27
17 17 17 18 18 17 17 17 17 18 18 19 19 20 20 21 22 22 27 28 29 29 29 29 31 30 31 32 32 30 29 31 34 33 37 38 38 37 35 34 32 30 29 27